| time (UTC) | temp C | wind direction | speed KPH | gust KPH | rain 1hr cm | rain 24hr cm | rain mn cm | humidity % | barometer mb |
| 20260906155352 | 36 | 29 | 1.6 | 4.8 | 0.00 | 0.00 | 0.00 | 57 | 1014.2 |
| 20260906154849 | 35 | 35 | 1.6 | 3.2 | 0.00 | 0.00 | 0.00 | 57 | 1014.0 |
| 20260906154343 | 35 | 53 | 3.2 | 3.2 | 0.00 | 0.00 | 0.00 | 57 | 1014.2 |
| 20260906153842 | 35 | 79 | 1.6 | 3.2 | 0.00 | 0.00 | 0.00 | 56 | 1014.2 |
| 20260906153336 | 34 | 304 | 0.0 | 1.6 | 0.00 | 0.00 | 0.00 | 60 | 1014.1 |
| 20260906152831 | 35 | 61 | 3.2 | 6.4 | 0.00 | 0.00 | 0.00 | 60 | 1014.1 |
| 20260906152326 | 35 | 106 | 0.0 | 0.0 | 0.00 | 0.00 | 0.00 | 59 | 1014.3 |
| 20260906151825 | 35 | 75 | 1.6 | 3.2 | 0.00 | 0.00 | 0.00 | 58 | 1014.2 |
| 20260906151321 | 34 | 100 | 0.0 | 1.6 | 0.00 | 0.00 | 0.00 | 59 | 1014.1 |
| 20260906150817 | 35 | 338 | 0.0 | 1.6 | 0.00 | 0.00 | 0.00 | 62 | 1014.0 |
| 20260906150312 | 34 | 67 | 1.6 | 1.6 | 0.00 | 0.00 | 0.00 | 63 | 1014.0 |
| 20260906145812 | 33 | 45 | 1.6 | 3.2 | 0.00 | 0.00 | 0.00 | 64 | 1014.1 |
| 20260906145310 | 33 | 35 | 1.6 | 1.6 | 0.00 | 0.00 | 0.00 | 64 | 1014.2 |
| 20260906144805 | 33 | 91 | 1.6 | 1.6 | 0.00 | 0.00 | 0.00 | 64 | 1014.1 |
| 20260906144300 | 33 | 93 | 0.0 | 1.6 | 0.00 | 0.00 | 0.00 | 65 | 1014.1 |
| 20260906143759 | 32 | 63 | 1.6 | 3.2 | 0.00 | 0.00 | 0.00 | 67 | 1014.1 |
| 20260906143257 | 32 | 59 | 1.6 | 3.2 | 0.00 | 0.00 | 0.00 | 68 | 1014.1 |
| 20260906142756 | 32 | 74 | 0.0 | 1.6 | 0.00 | 0.00 | 0.00 | 69 | 1014.2 |
| 20260906142251 | 32 | 98 | 0.0 | 1.6 | 0.00 | 0.00 | 0.00 | 68 | 1014.1 |
| 20260906141749 | 31 | 91 | 0.0 | 1.6 | 0.00 | 0.00 | 0.00 | 68 | 1014.0 |
| 20260906141239 | 31 | 86 | 1.6 | 3.2 | 0.00 | 0.00 | 0.00 | 70 | 1013.9 |
| 20260906140739 | 31 | 54 | 0.0 | 1.6 | 0.00 | 0.00 | 0.00 | 71 | 1014.1 |
| 20260906140234 | 31 | 47 | 1.6 | 1.6 | 0.00 | 0.00 | 0.00 | 70 | 1014.2 |
| 20260906135730 | 31 | 87 | 0.0 | 3.2 | 0.00 | 0.00 | 0.00 | 71 | 1014.0 |
| 20260906135227 | 31 | 109 | 1.6 | 1.6 | 0.00 | 0.00 | 0.00 | 69 | 1014.2 |
| 20260906134722 | 31 | 111 | 0.0 | 0.0 | 0.00 | 0.00 | 0.00 | 70 | 1014.2 |
| 20260906134217 | 31 | 112 | 0.0 | 1.6 | 0.00 | 0.00 | 0.00 | 70 | 1014.2 |
| 20260906133713 | 30 | 112 | 0.0 | 0.0 | 0.00 | 0.00 | 0.00 | 72 | 1014.3 |
| 20260906133208 | 30 | 112 | 0.0 | 0.0 | 0.00 | 0.00 | 0.00 | 74 | 1014.1 |
| 20260906132703 | 30 | 112 | 0.0 | 0.0 | 0.00 | 0.00 | 0.00 | 75 | 1014.2 |
| 20260906132159 | 29 | 112 | 0.0 | 0.0 | 0.00 | 0.00 | 0.00 | 76 | 1014.1 |
| 20260906131654 | 28 | 112 | 0.0 | 1.6 | 0.00 | 0.00 | 0.00 | 77 | 1014.1 |
| 20260906131149 | 28 | 126 | 0.0 | 1.6 | 0.00 | 0.00 | 0.00 | 78 | 1014.0 |
| 20260906130644 | 28 | 194 | 0.0 | 0.0 | 0.00 | 0.00 | 0.00 | 79 | 1013.9 |
| 20260906130139 | 28 | 193 | 0.0 | 0.0 | 0.00 | 0.00 | 0.00 | 78 | 1013.8 |
| 20260906125636 | 27 | 193 | 0.0 | 0.0 | 0.00 | 0.00 | 0.00 | 78 | 1014.1 |
| 20260906125130 | 26 | 195 | 0.0 | 0.0 | 0.00 | 0.00 | 0.00 | 82 | 1013.8 |
| 20260906124626 | 26 | 195 | 0.0 | 0.0 | 0.00 | 0.00 | 0.00 | 85 | 1013.6 |
| 20260906124121 | 26 | 194 | 0.0 | 1.6 | 0.00 | 0.00 | 0.00 | 85 | 1013.5 |
| 20260906123620 | 26 | 197 | 0.0 | 0.0 | 0.00 | 0.00 | 0.00 | 85 | 1013.6 |
| 20260906123115 | 25 | 197 | 0.0 | 0.0 | 0.00 | 0.00 | 0.00 | 85 | 1013.6 |
| 20260906122614 | 25 | 197 | 0.0 | 0.0 | 0.00 | 0.00 | 0.00 | 86 | 1013.6 |
| 20260906122110 | 25 | 197 | 0.0 | 0.0 | 0.00 | 0.00 | 0.00 | 86 | 1013.6 |
| 20260906121606 | 25 | 197 | 1.6 | 1.6 | 0.00 | 0.00 | 0.00 | 87 | 1013.4 |
| 20260906121103 | 25 | 198 | 0.0 | 0.0 | 0.00 | 0.00 | 0.00 | 88 | 1013.4 |
| 20260906120557 | 25 | 198 | 0.0 | 0.0 | 0.00 | 0.00 | 0.00 | 88 | 1013.3 |
| 20260906120054 | 25 | 198 | 0.0 | 0.0 | 0.00 | 0.00 | 0.00 | 87 | 1013.3 |
| 20260906115549 | 25 | 198 | 0.0 | 0.0 | 0.00 | 0.00 | 0.00 | 87 | 1013.3 |
| 20260906115044 | 25 | 197 | 0.0 | 0.0 | 0.00 | 0.00 | 0.00 | 86 | 1013.2 |
| 20260906114538 | 25 | 197 | 0.0 | 1.6 | 0.00 | 0.00 | 0.00 | 86 | 1013.2 |
| 20260906114034 | 25 | 224 | 0.0 | 0.0 | 0.00 | 0.00 | 0.00 | 85 | 1012.9 |
| 20260906113532 | 25 | 224 | 0.0 | 0.0 | 0.00 | 0.00 | 0.00 | 85 | 1012.9 |
| 20260906113028 | 25 | 224 | 0.0 | 0.0 | 0.00 | 0.00 | 0.00 | 86 | 1013.0 |
| 20260906112523 | 26 | 224 | 0.0 | 0.0 | 0.00 | 0.00 | 0.00 | 85 | 1013.1 |
| 20260906112019 | 25 | 224 | 0.0 | 0.0 | 0.00 | 0.00 | 0.00 | 86 | 1012.9 |
| 20260906111519 | 25 | 225 | 0.0 | 0.0 | 0.00 | 0.00 | 0.00 | 86 | 1012.8 |
| 20260906111014 | 25 | 226 | 0.0 | 0.0 | 0.00 | 0.00 | 0.00 | 85 | 1012.8 |
| 20260906110509 | 26 | 225 | 0.0 | 0.0 | 0.00 | 0.00 | 0.00 | 85 | 1012.7 |
| 20260906110008 | 26 | 225 | 0.0 | 0.0 | 0.00 | 0.00 | 0.00 | 84 | 1012.9 |
| 20260906105503 | 26 | 225 | 0.0 | 0.0 | 0.00 | 0.00 | 0.00 | 84 | 1012.7 |
| 20260906104959 | 26 | 225 | 0.0 | 0.0 | 0.00 | 0.00 | 0.00 | 83 | 1012.6 |
| 20260906104458 | 26 | 225 | 0.0 | 0.0 | 0.00 | 0.00 | 0.00 | 84 | 1012.6 |
| 20260906103957 | 26 | 226 | 0.0 | 0.0 | 0.00 | 0.00 | 0.00 | 85 | 1012.6 |
| 20260906103456 | 26 | 223 | 0.0 | 0.0 | 0.00 | 0.00 | 0.00 | 84 | 1012.6 |
| 20260906102951 | 26 | 223 | 0.0 | 0.0 | 0.00 | 0.00 | 0.00 | 85 | 1012.8 |
| 20260906102450 | 26 | 223 | 0.0 | 0.0 | 0.00 | 0.00 | 0.00 | 85 | 1012.6 |
| 20260906101945 | 25 | 224 | 0.0 | 0.0 | 0.00 | 0.00 | 0.00 | 87 | 1012.7 |
| 20260906101440 | 25 | 224 | 0.0 | 0.0 | 0.00 | 0.00 | 0.00 | 86 | 1012.8 |
| 20260906100935 | 25 | 224 | 0.0 | 0.0 | 0.00 | 0.00 | 0.00 | 86 | 1012.6 |
| 20260906100430 | 26 | 224 | 0.0 | 0.0 | 0.00 | 0.00 | 0.00 | 86 | 1012.4 |
| 20260906095924 | 26 | 224 | 0.0 | 0.0 | 0.00 | 0.00 | 0.00 | 85 | 1012.5 |
| 20260906095420 | 26 | 224 | 0.0 | 0.0 | 0.00 | 0.00 | 0.00 | 85 | 1012.5 |
| 20260906094914 | 26 | 224 | 0.0 | 0.0 | 0.00 | 0.00 | 0.00 | 85 | 1012.3 |
| 20260906094408 | 26 | 224 | 0.0 | 0.0 | 0.00 | 0.00 | 0.00 | 85 | 1012.4 |
| 20260906093859 | 26 | 224 | 0.0 | 0.0 | 0.00 | 0.00 | 0.00 | 85 | 1012.5 |
| 20260906093355 | 26 | 224 | 0.0 | 0.0 | 0.00 | 0.00 | 0.00 | 84 | 1012.4 |
| 20260906092855 | 26 | 224 | 0.0 | 0.0 | 0.00 | 0.00 | 0.00 | 83 | 1012.4 |
| 20260906092349 | 26 | 224 | 0.0 | 0.0 | 0.00 | 0.00 | 0.00 | 82 | 1012.2 |
| 20260906091844 | 26 | 224 | 0.0 | 0.0 | 0.00 | 0.00 | 0.00 | 83 | 1012.3 |
| 20260906091340 | 26 | 224 | 0.0 | 0.0 | 0.00 | 0.00 | 0.00 | 83 | 1012.2 |
| 20260906090837 | 26 | 224 | 0.0 | 0.0 | 0.00 | 0.00 | 0.00 | 83 | 1012.3 |
| 20260906090336 | 26 | 224 | 0.0 | 0.0 | 0.00 | 0.00 | 0.00 | 82 | 1012.2 |
| 20260906085831 | 26 | 229 | 0.0 | 0.0 | 0.00 | 0.00 | 0.00 | 81 | 1012.2 |
| 20260906085329 | 27 | 228 | 0.0 | 0.0 | 0.00 | 0.00 | 0.00 | 80 | 1012.1 |
| 20260906084824 | 27 | 227 | 0.0 | 0.0 | 0.00 | 0.00 | 0.00 | 79 | 1012.2 |
| 20260906084324 | 27 | 221 | 0.0 | 1.6 | 0.00 | 0.00 | 0.00 | 79 | 1012.1 |
| 20260906083818 | 27 | 220 | 0.0 | 0.0 | 0.00 | 0.00 | 0.00 | 80 | 1011.9 |
| 20260906083314 | 27 | 220 | 0.0 | 1.6 | 0.00 | 0.00 | 0.00 | 79 | 1012.0 |
| 20260906082809 | 27 | 220 | 0.0 | 0.0 | 0.00 | 0.00 | 0.00 | 79 | 1011.9 |
| 20260906082306 | 27 | 221 | 0.0 | 0.0 | 0.00 | 0.00 | 0.00 | 79 | 1011.9 |
| 20260906081800 | 26 | 221 | 0.0 | 0.0 | 0.00 | 0.00 | 0.00 | 81 | 1011.8 |
| 20260906081255 | 26 | 221 | 0.0 | 0.0 | 0.00 | 0.00 | 0.00 | 81 | 1011.9 |
| 20260906080752 | 26 | 221 | 0.0 | 0.0 | 0.00 | 0.00 | 0.00 | 81 | 1012.0 |
| 20260906080248 | 26 | 221 | 0.0 | 0.0 | 0.00 | 0.00 | 0.00 | 81 | 1012.0 |
| 20260906075742 | 27 | 221 | 0.0 | 0.0 | 0.00 | 0.00 | 0.00 | 80 | 1011.9 |
| 20260906075242 | 27 | 221 | 0.0 | 0.0 | 0.00 | 0.00 | 0.00 | 80 | 1012.2 |
| 20260906074737 | 27 | 221 | 0.0 | 0.0 | 0.00 | 0.00 | 0.00 | 79 | 1011.9 |
| 20260906074236 | 27 | 221 | 0.0 | 0.0 | 0.00 | 0.00 | 0.00 | 79 | 1012.2 |
| 20260906073736 | 27 | 221 | 0.0 | 0.0 | 0.00 | 0.00 | 0.00 | 79 | 1012.1 |
| 20260906073231 | 27 | 223 | 0.0 | 0.0 | 0.00 | 0.00 | 0.00 | 79 | 1012.1 |
| 20260906072727 | 27 | 212 | 0.0 | 1.6 | 0.00 | 0.00 | 0.00 | 79 | 1012.1 |
| 20260906072222 | 27 | 222 | 0.0 | 0.0 | 0.00 | 0.00 | 0.00 | 80 | 1012.2 |
| 20260906071718 | 27 | 222 | 0.0 | 0.0 | 0.00 | 0.00 | 0.00 | 79 | 1012.1 |
| 20260906071218 | 27 | 221 | 0.0 | 0.0 | 0.00 | 0.00 | 0.00 | 79 | 1012.3 |
| 20260906070715 | 27 | 222 | 0.0 | 0.0 | 0.00 | 0.00 | 0.00 | 80 | 1012.3 |
| 20260906070210 | 27 | 221 | 0.0 | 0.0 | 0.00 | 0.00 | 0.00 | 82 | 1012.4 |
| 20260906065710 | 27 | 221 | 0.0 | 0.0 | 0.00 | 0.00 | 0.00 | 82 | 1012.5 |
| 20260906065205 | 27 | 221 | 0.0 | 0.0 | 0.00 | 0.00 | 0.00 | 81 | 1012.4 |
| 20260906064701 | 27 | 221 | 0.0 | 0.0 | 0.00 | 0.00 | 0.00 | 80 | 1012.5 |
| 20260906064155 | 27 | 221 | 0.0 | 0.0 | 0.00 | 0.00 | 0.00 | 80 | 1012.5 |
| 20260906063651 | 27 | 222 | 0.0 | 0.0 | 0.00 | 0.00 | 0.00 | 82 | 1012.4 |
| 20260906063147 | 27 | 222 | 0.0 | 0.0 | 0.00 | 0.00 | 0.00 | 83 | 1012.6 |
| 20260906062642 | 27 | 222 | 0.0 | 0.0 | 0.00 | 0.00 | 0.00 | 82 | 1012.6 |
| 20260906062140 | 27 | 222 | 0.0 | 0.0 | 0.00 | 0.00 | 0.00 | 82 | 1012.6 |
| 20260906061637 | 27 | 222 | 0.0 | 0.0 | 0.00 | 0.00 | 0.00 | 82 | 1012.5 |
| 20260906061137 | 27 | 222 | 0.0 | 0.0 | 0.00 | 0.00 | 0.00 | 82 | 1012.6 |
| 20260906060634 | 27 | 222 | 0.0 | 0.0 | 0.00 | 0.00 | 0.00 | 81 | 1012.6 |
| 20260906060131 | 27 | 221 | 0.0 | 0.0 | 0.00 | 0.00 | 0.00 | 80 | 1012.5 |
| 20260906055626 | 27 | 221 | 0.0 | 0.0 | 0.00 | 0.00 | 0.00 | 78 | 1012.4 |
| 20260906055121 | 27 | 221 | 0.0 | 0.0 | 0.00 | 0.00 | 0.00 | 78 | 1012.2 |
| 20260906054616 | 27 | 221 | 0.0 | 0.0 | 0.00 | 0.00 | 0.00 | 79 | 1012.5 |
| 20260906054111 | 27 | 221 | 0.0 | 0.0 | 0.00 | 0.00 | 0.00 | 79 | 1012.6 |
| 20260906053608 | 28 | 221 | 0.0 | 0.0 | 0.00 | 0.00 | 0.00 | 79 | 1012.6 |
| 20260906053103 | 28 | 221 | 0.0 | 0.0 | 0.00 | 0.00 | 0.00 | 78 | 1012.3 |
| 20260906052558 | 28 | 221 | 0.0 | 0.0 | 0.00 | 0.00 | 0.00 | 77 | 1012.6 |
| 20260906052055 | 28 | 221 | 0.0 | 1.6 | 0.00 | 0.00 | 0.00 | 76 | 1012.6 |
| 20260906051550 | 28 | 221 | 0.0 | 1.6 | 0.00 | 0.00 | 0.00 | 76 | 1012.4 |
| 20260906051046 | 28 | 239 | 0.0 | 0.0 | 0.00 | 0.00 | 0.00 | 76 | 1012.5 |
| 20260906050540 | 28 | 239 | 0.0 | 0.0 | 0.00 | 0.00 | 0.00 | 76 | 1012.2 |
| 20260906050036 | 28 | 239 | 0.0 | 0.0 | 0.00 | 0.00 | 0.00 | 76 | 1012.3 |
| 20260906045534 | 29 | 241 | 0.0 | 0.0 | 0.00 | 0.00 | 0.00 | 74 | 1012.4 |
| 20260906045030 | 29 | 216 | 0.0 | 0.0 | 0.00 | 0.00 | 0.00 | 73 | 1012.4 |
| 20260906044525 | 29 | 217 | 1.6 | 1.6 | 0.00 | 0.00 | 0.00 | 72 | 1012.2 |
| 20260906044021 | 29 | 211 | 0.0 | 0.0 | 0.00 | 0.00 | 0.00 | 74 | 1012.1 |
| 20260906043516 | 29 | 222 | 0.0 | 1.6 | 0.00 | 0.00 | 0.00 | 74 | 1012.1 |
| 20260906043013 | 28 | 227 | 0.0 | 0.0 | 0.00 | 0.00 | 0.00 | 74 | 1012.0 |
| 20260906042511 | 28 | 229 | 0.0 | 0.0 | 0.00 | 0.00 | 0.00 | 75 | 1012.2 |
| 20260906042011 | 28 | 192 | 0.0 | 0.0 | 0.00 | 0.00 | 0.00 | 75 | 1012.2 |
| 20260906041507 | 28 | 192 | 0.0 | 0.0 | 0.00 | 0.00 | 0.00 | 75 | 1012.1 |
| 20260906041007 | 28 | 192 | 0.0 | 0.0 | 0.00 | 0.00 | 0.00 | 75 | 1012.1 |
| 20260906040502 | 28 | 192 | 0.0 | 0.0 | 0.00 | 0.00 | 0.00 | 76 | 1012.1 |
| 20260906035957 | 28 | 192 | 0.0 | 0.0 | 0.00 | 0.00 | 0.00 | 76 | 1012.1 |
| 20260906035453 | 28 | 192 | 0.0 | 0.0 | 0.00 | 0.00 | 0.00 | 77 | 1012.2 |
| 20260906034948 | 28 | 192 | 0.0 | 0.0 | 0.00 | 0.00 | 0.00 | 76 | 1012.3 |
| 20260906034442 | 28 | 192 | 0.0 | 0.0 | 0.00 | 0.00 | 0.00 | 76 | 1012.2 |
| 20260906033932 | 29 | 192 | 0.0 | 0.0 | 0.00 | 0.00 | 0.00 | 75 | 1012.2 |
| 20260906033427 | 29 | 192 | 0.0 | 0.0 | 0.00 | 0.00 | 0.00 | 74 | 1012.2 |
| 20260906032922 | 29 | 192 | 0.0 | 0.0 | 0.00 | 0.00 | 0.00 | 73 | 1012.4 |
| 20260906032419 | 30 | 192 | 0.0 | 0.0 | 0.00 | 0.00 | 0.00 | 72 | 1012.4 |
| 20260906031913 | 30 | 192 | 0.0 | 0.0 | 0.00 | 0.00 | 0.00 | 71 | 1012.3 |
| 20260906031408 | 30 | 192 | 0.0 | 0.0 | 0.00 | 0.00 | 0.00 | 71 | 1012.4 |
| 20260906030903 | 30 | 192 | 0.0 | 0.0 | 0.00 | 0.00 | 0.00 | 69 | 1012.3 |
| 20260906030358 | 30 | 192 | 0.0 | 0.0 | 0.00 | 0.00 | 0.00 | 69 | 1012.2 |
| 20260906025852 | 30 | 192 | 0.0 | 0.0 | 0.00 | 0.00 | 0.00 | 69 | 1012.2 |
| 20260906025346 | 30 | 192 | 0.0 | 0.0 | 0.00 | 0.00 | 0.00 | 70 | 1012.4 |
| 20260906024845 | 30 | 192 | 0.0 | 0.0 | 0.00 | 0.00 | 0.00 | 70 | 1012.6 |
| 20260906024344 | 30 | 192 | 0.0 | 0.0 | 0.00 | 0.00 | 0.00 | 70 | 1012.6 |
| 20260906023840 | 30 | 192 | 0.0 | 0.0 | 0.00 | 0.00 | 0.00 | 70 | 1012.3 |
| 20260906023336 | 30 | 192 | 0.0 | 0.0 | 0.00 | 0.00 | 0.00 | 70 | 1012.4 |
| 20260906022831 | 30 | 192 | 0.0 | 0.0 | 0.00 | 0.00 | 0.00 | 70 | 1012.4 |
| 20260906022326 | 30 | 192 | 0.0 | 0.0 | 0.00 | 0.00 | 0.00 | 70 | 1012.3 |
| 20260906021822 | 30 | 192 | 0.0 | 0.0 | 0.00 | 0.00 | 0.00 | 70 | 1012.2 |
| 20260906021321 | 30 | 192 | 0.0 | 0.0 | 0.00 | 0.00 | 0.00 | 70 | 1012.0 |
| 20260906020816 | 30 | 192 | 0.0 | 0.0 | 0.00 | 0.00 | 0.00 | 70 | 1012.0 |
| 20260906020316 | 30 | 192 | 0.0 | 1.6 | 0.00 | 0.00 | 0.00 | 70 | 1011.9 |
| 20260906015815 | 30 | 192 | 0.0 | 0.0 | 0.00 | 0.00 | 0.00 | 69 | 1011.8 |
| 20260906015314 | 30 | 192 | 0.0 | 0.0 | 0.00 | 0.00 | 0.00 | 70 | 1011.7 |
| 20260906014809 | 30 | 192 | 0.0 | 0.0 | 0.00 | 0.00 | 0.00 | 69 | 1011.8 |
| 20260906014304 | 30 | 192 | 0.0 | 0.0 | 0.00 | 0.00 | 0.00 | 69 | 1011.5 |
| 20260906013800 | 30 | 191 | 0.0 | 0.0 | 0.00 | 0.00 | 0.00 | 69 | 1011.6 |
| 20260906013255 | 31 | 192 | 0.0 | 0.0 | 0.00 | 0.00 | 0.00 | 68 | 1011.8 |
| 20260906012751 | 31 | 210 | 0.0 | 0.0 | 0.00 | 0.00 | 0.00 | 67 | 1011.4 |
| 20260906012245 | 31 | 212 | 0.0 | 0.0 | 0.00 | 0.00 | 0.00 | 67 | 1011.5 |
| 20260906011740 | 31 | 212 | 0.0 | 0.0 | 0.00 | 0.00 | 0.00 | 66 | 1011.5 |
| 20260906011240 | 31 | 212 | 0.0 | 0.0 | 0.00 | 0.00 | 0.00 | 66 | 1011.4 |
| 20260906010735 | 31 | 212 | 0.0 | 0.0 | 0.00 | 0.00 | 0.00 | 66 | 1011.4 |
| 20260906010232 | 31 | 212 | 0.0 | 0.0 | 0.00 | 0.00 | 0.00 | 66 | 1011.4 |
| 20260906005727 | 31 | 212 | 0.0 | 0.0 | 0.00 | 0.00 | 0.00 | 65 | 1011.1 |
| 20260906005226 | 31 | 221 | 0.0 | 0.0 | 0.00 | 0.00 | 0.00 | 66 | 1010.9 |
| 20260906004725 | 32 | 289 | 0.0 | 0.0 | 0.00 | 0.00 | 0.00 | 64 | 1010.9 |
| 20260906004215 | 32 | 323 | 0.0 | 1.6 | 0.00 | 0.00 | 0.00 | 60 | 1011.1 |
| 20260906003710 | 32 | 323 | 0.0 | 0.0 | 0.00 | 0.00 | 0.00 | 61 | 1011.1 |
| 20260906003205 | 32 | 324 | 0.0 | 0.0 | 0.00 | 0.00 | 0.00 | 61 | 1010.9 |
| 20260906002700 | 32 | 324 | 0.0 | 0.0 | 0.00 | 0.00 | 0.00 | 61 | 1010.8 |
| 20260906002155 | 33 | 324 | 0.0 | 0.0 | 0.00 | 0.00 | 0.00 | 60 | 1011.1 |
| 20260906001650 | 33 | 324 | 0.0 | 0.0 | 0.00 | 0.00 | 0.00 | 59 | 1011.0 |
| 20260906001150 | 33 | 324 | 0.0 | 0.0 | 0.00 | 0.00 | 0.00 | 60 | 1011.2 |
| 20260906000645 | 33 | 324 | 0.0 | 0.0 | 0.00 | 0.00 | 0.00 | 59 | 1011.4 |
| 20260906000141 | 33 | 324 | 0.0 | 0.0 | 0.00 | 0.00 | 0.00 | 58 | 1011.2 |
| 20260905235639 | 34 | 324 | 0.0 | 0.0 | 0.00 | 0.00 | 0.00 | 57 | 1011.1 |
| 20260905235135 | 34 | 324 | 0.0 | 0.0 | 0.00 | 0.00 | 0.00 | 56 | 1011.3 |
| 20260905234630 | 35 | 324 | 0.0 | 0.0 | 0.00 | 0.00 | 0.00 | 55 | 1011.2 |
| 20260905234126 | 35 | 324 | 0.0 | 0.0 | 0.00 | 0.00 | 0.00 | 54 | 1011.3 |
| 20260905233620 | 35 | 324 | 0.0 | 0.0 | 0.00 | 0.00 | 0.00 | 53 | 1011.3 |
| 20260905233114 | 35 | 324 | 0.0 | 0.0 | 0.00 | 0.00 | 0.00 | 53 | 1011.2 |
| 20260905232610 | 35 | 324 | 0.0 | 0.0 | 0.00 | 0.00 | 0.00 | 54 | 1011.3 |
| 20260905232106 | 35 | 324 | 0.0 | 0.0 | 0.00 | 0.00 | 0.00 | 53 | 1011.3 |
| 20260905231600 | 35 | 324 | 0.0 | 0.0 | 0.00 | 0.00 | 0.00 | 53 | 1011.2 |
| 20260905231057 | 35 | 324 | 0.0 | 0.0 | 0.00 | 0.00 | 0.00 | 52 | 1011.2 |
| 20260905230556 | 35 | 324 | 0.0 | 0.0 | 0.00 | 0.00 | 0.00 | 52 | 1011.1 |
| 20260905230054 | 35 | 324 | 0.0 | 0.0 | 0.00 | 0.00 | 0.00 | 51 | 1011.2 |
| 20260905225549 | 35 | 324 | 0.0 | 1.6 | 0.00 | 0.00 | 0.00 | 51 | 1011.3 |
| 20260905225044 | 35 | 222 | 0.0 | 0.0 | 0.00 | 0.00 | 0.00 | 51 | 1011.2 |
| 20260905224543 | 35 | 212 | 0.0 | 0.0 | 0.00 | 0.00 | 0.00 | 51 | 1011.2 |
| 20260905224042 | 35 | 172 | 0.0 | 0.0 | 0.00 | 0.00 | 0.00 | 51 | 1011.3 |
| 20260905223541 | 35 | 206 | 0.0 | 0.0 | 0.00 | 0.00 | 0.00 | 51 | 1011.4 |
| 20260905223036 | 35 | 206 | 0.0 | 0.0 | 0.00 | 0.00 | 0.00 | 51 | 1011.5 |
| 20260905222531 | 35 | 206 | 0.0 | 0.0 | 0.00 | 0.00 | 0.00 | 52 | 1011.4 |
| 20260905222026 | 35 | 270 | 0.0 | 0.0 | 0.00 | 0.00 | 0.00 | 52 | 1011.5 |
| 20260905221523 | 35 | 210 | 0.0 | 1.6 | 0.00 | 0.00 | 0.00 | 53 | 1011.5 |
| 20260905221019 | 35 | 210 | 0.0 | 0.0 | 0.00 | 0.00 | 0.00 | 55 | 1011.5 |
| 20260905220514 | 35 | 210 | 0.0 | 0.0 | 0.00 | 0.00 | 0.00 | 55 | 1011.4 |
| 20260905220010 | 35 | 340 | 0.0 | 3.2 | 0.00 | 0.00 | 0.00 | 55 | 1011.5 |
| 20260905215505 | 34 | 353 | 0.0 | 3.2 | 0.00 | 0.00 | 0.00 | 55 | 1011.5 |
| 20260905215000 | 35 | 226 | 0.0 | 1.6 | 0.00 | 0.00 | 0.00 | 55 | 1011.6 |
| 20260905214456 | 35 | 235 | 0.0 | 1.6 | 0.00 | 0.00 | 0.00 | 55 | 1011.4 |
| 20260905213956 | 35 | 228 | 0.0 | 0.0 | 0.00 | 0.00 | 0.00 | 54 | 1011.4 |
| 20260905213452 | 35 | 228 | 0.0 | 1.6 | 0.00 | 0.00 | 0.00 | 54 | 1011.5 |
| 20260905212947 | 35 | 219 | 0.0 | 1.6 | 0.00 | 0.00 | 0.00 | 54 | 1011.2 |
| 20260905212442 | 35 | 219 | 1.6 | 3.2 | 0.00 | 0.00 | 0.00 | 53 | 1011.4 |
| 20260905211940 | 35 | 223 | 1.6 | 3.2 | 0.00 | 0.00 | 0.00 | 52 | 1011.5 |
| 20260905211431 | 35 | 215 | 0.0 | 3.2 | 0.00 | 0.00 | 0.00 | 53 | 1011.5 |
| 20260905210926 | 35 | 200 | 1.6 | 4.8 | 0.00 | 0.00 | 0.00 | 52 | 1011.4 |
| 20260905210421 | 36 | 222 | 3.2 | 6.4 | 0.00 | 0.00 | 0.00 | 50 | 1011.6 |
| 20260905205920 | 36 | 216 | 0.0 | 0.0 | 0.00 | 0.00 | 0.00 | 49 | 1011.6 |
| 20260905205415 | 36 | 216 | 0.0 | 0.0 | 0.00 | 0.00 | 0.00 | 48 | 1011.6 |
| 20260905204914 | 36 | 216 | 0.0 | 0.0 | 0.00 | 0.00 | 0.00 | 47 | 1011.8 |
| 20260905204410 | 36 | 216 | 0.0 | 1.6 | 0.00 | 0.00 | 0.00 | 48 | 1011.6 |
| 20260905203909 | 36 | 238 | 1.6 | 1.6 | 0.00 | 0.00 | 0.00 | 47 | 1012.0 |
| 20260905203405 | 36 | 249 | 0.0 | 1.6 | 0.00 | 0.00 | 0.00 | 47 | 1012.0 |
| 20260905202900 | 37 | 254 | 1.6 | 1.6 | 0.00 | 0.00 | 0.00 | 47 | 1012.1 |
| 20260905202355 | 37 | 253 | 0.0 | 1.6 | 0.00 | 0.00 | 0.00 | 46 | 1012.3 |
| 20260905201850 | 37 | 293 | 0.0 | 0.0 | 0.00 | 0.00 | 0.00 | 46 | 1012.3 |
| 20260905201346 | 37 | 79 | 0.0 | 1.6 | 0.00 | 0.00 | 0.00 | 46 | 1012.3 |
| 20260905200840 | 36 | 325 | 1.6 | 3.2 | 0.00 | 0.00 | 0.00 | 48 | 1012.3 |
| 20260905200336 | 36 | 202 | 0.0 | 1.6 | 0.00 | 0.00 | 0.00 | 49 | 1012.5 |
| 20260905195833 | 37 | 295 | 0.0 | 3.2 | 0.00 | 0.00 | 0.00 | 47 | 1012.6 |
| 20260905195328 | 36 | 93 | 0.0 | 4.8 | 0.00 | 0.00 | 0.00 | 47 | 1012.5 |
| 20260905194825 | 37 | 314 | 3.2 | 4.8 | 0.00 | 0.00 | 0.00 | 45 | 1012.8 |
| 20260905194319 | 37 | 257 | 0.0 | 3.2 | 0.00 | 0.00 | 0.00 | 43 | 1012.8 |
| 20260905193818 | 37 | 303 | 0.0 | 1.6 | 0.00 | 0.00 | 0.00 | 44 | 1012.8 |
| 20260905193313 | 38 | 16 | 1.6 | 1.6 | 0.00 | 0.00 | 0.00 | 42 | 1012.9 |
| 20260905192809 | 37 | 356 | 0.0 | 6.4 | 0.00 | 0.00 | 0.00 | 43 | 1012.9 |
| 20260905192306 | 38 | 12 | 1.6 | 4.8 | 0.00 | 0.00 | 0.00 | 43 | 1012.9 |
| 20260905191804 | 37 | 8 | 3.2 | 4.8 | 0.00 | 0.00 | 0.00 | 44 | 1013.0 |
| 20260905191302 | 37 | 134 | 0.0 | 0.0 | 0.00 | 0.00 | 0.00 | 44 | 1013.2 |
| 20260905190801 | 38 | 167 | 1.6 | 3.2 | 0.00 | 0.00 | 0.00 | 44 | 1013.0 |
| 20260905190254 | 38 | 180 | 3.2 | 6.4 | 0.00 | 0.00 | 0.00 | 43 | 1013.1 |
| 20260905185753 | 38 | 195 | 1.6 | 3.2 | 0.00 | 0.00 | 0.00 | 43 | 1013.2 |
| 20260905185248 | 38 | 28 | 0.0 | 1.6 | 0.00 | 0.00 | 0.00 | 43 | 1013.3 |
| 20260905184742 | 38 | 33 | 0.0 | 3.2 | 0.00 | 0.00 | 0.00 | 43 | 1013.1 |
| 20260905184241 | 38 | 194 | 0.0 | 1.6 | 0.00 | 0.00 | 0.00 | 45 | 1013.4 |
| 20260905183735 | 38 | 161 | 3.2 | 3.2 | 0.00 | 0.00 | 0.00 | 43 | 1013.5 |
| 20260905183231 | 38 | 237 | 1.6 | 3.2 | 0.00 | 0.00 | 0.00 | 44 | 1013.4 |
| 20260905182725 | 38 | 215 | 0.0 | 3.2 | 0.00 | 0.00 | 0.00 | 44 | 1013.6 |
| 20260905182224 | 38 | 18 | 0.0 | 3.2 | 0.00 | 0.00 | 0.00 | 43 | 1013.6 |
| 20260905181714 | 38 | 174 | 1.6 | 3.2 | 0.00 | 0.00 | 0.00 | 44 | 1013.6 |
| 20260905181213 | 38 | 40 | 6.4 | 6.4 | 0.00 | 0.00 | 0.00 | 43 | 1013.6 |
| 20260905180708 | 38 | 339 | 0.0 | 3.2 | 0.00 | 0.00 | 0.00 | 44 | 1013.7 |
| 20260905180203 | 38 | 217 | 0.0 | 1.6 | 0.00 | 0.00 | 0.00 | 45 | 1013.6 |
| 20260905175703 | 38 | 133 | 1.6 | 1.6 | 0.00 | 0.00 | 0.00 | 43 | 1013.8 |
| 20260905175157 | 37 | 104 | 1.6 | 3.2 | 0.00 | 0.00 | 0.00 | 45 | 1013.9 |
| 20260905174653 | 37 | 180 | 3.2 | 4.8 | 0.00 | 0.00 | 0.00 | 44 | 1013.8 |
| 20260905174149 | 38 | 205 | 1.6 | 1.6 | 0.00 | 0.00 | 0.00 | 44 | 1013.9 |
| 20260905173644 | 37 | 151 | 0.0 | 1.6 | 0.00 | 0.00 | 0.00 | 44 | 1013.8 |
| 20260905173140 | 38 | 162 | 1.6 | 3.2 | 0.00 | 0.00 | 0.00 | 44 | 1013.8 |
| 20260905172639 | 38 | 159 | 0.0 | 3.2 | 0.00 | 0.00 | 0.00 | 43 | 1014.0 |
| 20260905172139 | 38 | 57 | 3.2 | 6.4 | 0.00 | 0.00 | 0.00 | 44 | 1014.0 |
| 20260905171635 | 37 | 18 | 1.6 | 4.8 | 0.00 | 0.00 | 0.00 | 45 | 1014.1 |
| 20260905171131 | 38 | 107 | 1.6 | 1.6 | 0.00 | 0.00 | 0.00 | 43 | 1014.4 |
| 20260905170628 | 38 | 107 | 1.6 | 1.6 | 0.00 | 0.00 | 0.00 | 43 | 1014.4 |
| 20260905170123 | 38 | 49 | 0.0 | 1.6 | 0.00 | 0.00 | 0.00 | 44 | 1014.2 |
| 20260905165623 | 38 | 90 | 0.0 | 0.0 | 0.00 | 0.00 | 0.00 | 46 | 1014.4 |
| 20260905165118 | 37 | 16 | 0.0 | 4.8 | 0.00 | 0.00 | 0.00 | 44 | 1014.4 |
| 20260905164613 | 37 | 81 | 3.2 | 4.8 | 0.00 | 0.00 | 0.00 | 44 | 1014.7 |
| 20260905164112 | 37 | 149 | 0.0 | 1.6 | 0.00 | 0.00 | 0.00 | 45 | 1014.7 |
| 20260905163609 | 37 | 179 | 0.0 | 4.8 | 0.00 | 0.00 | 0.00 | 46 | 1014.7 |
| 20260905163105 | 37 | 166 | 0.0 | 1.6 | 0.00 | 0.00 | 0.00 | 45 | 1014.8 |
| 20260905162601 | 37 | 160 | 0.0 | 3.2 | 0.00 | 0.00 | 0.00 | 45 | 1014.8 |
| 20260905162101 | 37 | 127 | 0.0 | 1.6 | 0.00 | 0.00 | 0.00 | 45 | 1015.0 |
| 20260905161600 | 37 | 128 | 0.0 | 3.2 | 0.00 | 0.00 | 0.00 | 46 | 1014.9 |
| 20260905161058 | 37 | 333 | 3.2 | 3.2 | 0.00 | 0.00 | 0.00 | 48 | 1015.0 |
| 20260905160557 | 37 | 352 | 1.6 | 3.2 | 0.00 | 0.00 | 0.00 | 47 | 1014.7 |
| 20260905160052 | 36 | 234 | 0.0 | 1.6 | 0.00 | 0.00 | 0.00 | 47 | 1014.8 |
| 20260905155551 | 36 | 223 | 3.2 | 3.2 | 0.00 | 0.00 | 0.00 | 49 | 1015.1 |